KC3ROS Weather Reports


Display with metric or nautical units.
time (UTC)temp
F
wind
direction
speed
MPH
gust
MPH
rain 1hr
in
rain 24hr
in
rain mn
in
humidity
%
barometer
mb
20260508001806 53 228 2.0 6.0 0.00 0.00 0.00 49 1010.7
20260508001302 53 234 3.0 9.0 0.00 0.00 0.00 50 1010.7
20260508000758 53 321 2.0 4.0 0.00 0.00 0.00 49 1010.6
20260508000257 53 322 2.0 8.0 0.00 0.00 0.00 48 1010.4
20260507235751 54 42 1.0 4.0 0.00 0.00 0.00 49 1010.4
20260507235249 54 326 2.0 5.0 0.00 0.00 0.00 49 1010.4
20260507234746 54 315 2.0 10.0 0.00 0.00 0.00 45 1010.3
20260507234242 55 329 5.0 11.0 0.00 0.00 0.00 45 1010.4
20260507233738 55 346 4.0 8.0 0.00 0.00 0.00 45 1010.2
20260507233237 55 287 7.0 15.0 0.00 0.00 0.00 46 1010.1
20260507232734 55 60 3.0 11.0 0.00 0.00 0.00 46 1010.2
20260507232231 55 0 5.0 9.0 0.00 0.00 0.00 47 1009.9
20260507231727 55 355 2.0 9.0 0.00 0.00 0.00 46 1010.1
20260507231224 55 333 4.0 10.0 0.00 0.00 0.00 45 1010.0
20260507230721 56 343 5.0 12.0 0.00 0.00 0.00 44 1010.0
20260507230219 57 1 2.0 4.0 0.00 0.00 0.00 44 1010.1
20260507225717 57 12 1.0 6.0 0.00 0.00 0.00 43 1009.8
20260507225215 55 305 5.0 8.0 0.00 0.00 0.00 44 1009.8
20260507224710 56 324 5.0 9.0 0.00 0.00 0.00 43 1009.9
20260507224207 56 346 3.0 7.0 0.00 0.00 0.00 42 1009.7
20260507223703 57 276 4.0 9.0 0.00 0.00 0.00 42 1009.7
20260507223200 57 327 3.0 9.0 0.00 0.00 0.00 44 1009.6
20260507222657 56 266 3.0 17.0 0.00 0.00 0.00 43 1009.6
20260507222153 57 32 2.0 5.0 0.00 0.00 0.00 43 1009.6
20260507221650 57 293 3.0 8.0 0.00 0.00 0.00 44 1009.4
20260507221146 58 253 4.0 10.0 0.00 0.00 0.00 40 1009.4
20260507220643 60 339 3.0 5.0 0.00 0.00 0.00 41 1009.2
20260507220142 59 19 3.0 9.0 0.00 0.00 0.00 40 1009.0
20260507215637 57 314 3.0 5.0 0.00 0.00 0.00 40 1009.4
20260507215135 58 35 4.0 5.0 0.00 0.00 0.00 43 1009.2
20260507214632 59 0 2.0 8.0 0.00 0.00 0.00 42 1009.1
20260507214128 59 347 5.0 8.0 0.00 0.00 0.00 39 1009.1
20260507213625 59 0 2.0 4.0 0.00 0.00 0.00 41 1008.9
20260507213122 58 342 4.0 4.0 0.00 0.00 0.00 43 1008.9
20260507212618 59 32 2.0 4.0 0.00 0.00 0.00 41 1009.0
20260507212115 59 316 5.0 7.0 0.00 0.00 0.00 42 1009.0
20260507211612 56 343 3.0 5.0 0.00 0.00 0.00 45 1009.0
20260507211107 57 31 2.0 7.0 0.00 0.00 0.00 41 1009.0
20260507210605 57 226 1.0 8.0 0.00 0.00 0.00 42 1009.0
20260507205558 61 295 3.0 10.0 0.00 0.00 0.00 39 1008.7
20260507205054 60 210 1.0 7.0 0.00 0.00 0.00 45 1008.6
20260507204551 61 6 2.0 5.0 0.00 0.00 0.00 42 1008.8
20260507204048 59 216 1.0 7.0 0.00 0.00 0.00 39 1009.0
20260507203546 59 196 5.0 10.0 0.00 0.00 0.00 38 1008.9
20260507203043 58 244 1.0 4.0 0.00 0.00 0.00 44 1008.6
20260507202539 58 37 2.0 4.0 0.00 0.00 0.00 41 1008.8
20260507202035 59 300 3.0 7.0 0.00 0.00 0.00 40 1008.9
20260507201531 61 334 4.0 11.0 0.00 0.00 0.00 39 1008.8
20260507201027 57 353 1.0 4.0 0.00 0.00 0.00 40 1008.9
20260507200523 59 262 9.0 12.0 0.00 0.00 0.00 39 1009.1
20260507200019 59 251 4.0 7.0 0.00 0.00 0.00 39 1009.1
20260507195517 60 316 4.0 10.0 0.00 0.00 0.00 40 1008.9
20260507195014 59 201 3.0 7.0 0.00 0.00 0.00 40 1009.1
20260507194510 60 350 4.0 10.0 0.00 0.00 0.00 39 1009.1
20260507194007 59 32 4.0 5.0 0.00 0.00 0.00 38 1009.1
20260507193504 59 273 3.0 9.0 0.00 0.00 0.00 39 1009.3
20260507193000 60 324 3.0 7.0 0.00 0.00 0.00 41 1009.3
20260507192456 60 3 4.0 7.0 0.00 0.00 0.00 40 1009.2
20260507191954 57 169 3.0 5.0 0.00 0.00 0.00 41 1009.2
20260507191449 58 294 7.0 12.0 0.00 0.00 0.00 41 1009.4
20260507190946 59 173 2.0 4.0 0.00 0.00 0.00 42 1009.1
20260507190444 60 263 6.0 9.0 0.00 0.00 0.00 40 1009.1
20260507185942 60 30 1.0 9.0 0.00 0.00 0.00 45 1009.0
20260507185439 58 329 4.0 13.0 0.00 0.00 0.00 40 1009.1
20260507184936 61 200 5.0 8.0 0.00 0.00 0.00 40 1009.3
20260507184434 60 201 0.0 10.0 0.00 0.00 0.00 42 1009.3
20260507183932 58 32 2.0 4.0 0.00 0.00 0.00 44 1009.5
20260507183428 59 303 3.0 7.0 0.00 0.00 0.00 46 1009.3
20260507182926 59 14 2.0 7.0 0.00 0.00 0.00 46 1009.4
20260507182421 57 254 2.0 7.0 0.00 0.00 0.00 46 1009.4
20260507181918 56 60 0.0 9.0 0.00 0.00 0.00 46 1009.4
20260507181414 57 355 3.0 6.0 0.00 0.00 0.00 49 1009.5
20260507180911 57 255 2.0 10.0 0.00 0.00 0.00 44 1009.6
20260507180407 59 163 2.0 5.0 0.00 0.00 0.00 42 1009.6
20260507175903 58 215 4.0 10.0 0.00 0.00 0.00 47 1009.5
20260507175400 59 224 6.0 14.0 0.00 0.00 0.00 45 1009.5
20260507174858 58 276 3.0 11.0 0.00 0.00 0.00 43 1009.6
20260507174355 57 245 4.0 8.0 0.00 0.00 0.00 46 1009.6
20260507173853 58 39 5.0 6.0 0.00 0.00 0.00 44 1009.8
20260507173349 59 319 5.0 7.0 0.00 0.00 0.00 48 1009.7
20260507172846 58 245 3.0 5.0 0.00 0.00 0.00 48 1009.6
20260507172342 57 212 4.0 7.0 0.00 0.00 0.00 50 1009.9
20260507171838 58 260 7.0 11.0 0.00 0.00 0.00 44 1009.8
20260507171335 59 261 4.0 10.0 0.00 0.00 0.00 46 1010.0
20260507170832 58 186 4.0 10.0 0.00 0.00 0.00 48 1010.1
20260507170329 59 229 4.0 9.0 0.00 0.00 0.00 48 1010.2
20260507165825 57 64 3.0 9.0 0.00 0.00 0.00 51 1010.0
20260507165321 58 196 3.0 6.0 0.00 0.00 0.00 51 1010.1
20260507164817 57 193 5.0 11.0 0.00 0.00 0.00 47 1010.3
20260507164314 57 219 6.0 12.0 0.00 0.00 0.00 50 1010.3
20260507163811 58 260 3.0 11.0 0.00 0.00 0.00 54 1010.1
20260507163309 57 232 5.0 9.0 0.00 0.00 0.00 53 1010.2
20260507162805 55 30 0.0 3.0 0.00 0.00 0.00 55 1010.4
20260507162301 55 357 2.0 6.0 0.00 0.00 0.00 54 1010.4
20260507161758 55 11 0.0 3.0 0.00 0.00 0.00 53 1010.3
20260507161254 57 31 2.0 5.0 0.00 0.00 0.00 52 1010.4
20260507160750 56 261 5.0 5.0 0.00 0.00 0.00 53 1010.3
20260507160247 54 283 2.0 5.0 0.00 0.00 0.00 56 1010.4
20260507155743 57 185 4.0 8.0 0.00 0.00 0.00 48 1010.5
20260507155239 57 260 2.0 7.0 0.00 0.00 0.00 49 1010.7
20260507154736 57 219 8.0 11.0 0.00 0.00 0.00 46 1010.6
20260507154234 56 268 2.0 4.0 0.00 0.00 0.00 54 1010.6
20260507153730 55 292 0.0 12.0 0.00 0.00 0.00 55 1010.6
20260507153226 53 17 2.0 4.0 0.00 0.00 0.00 59 1010.7
20260507152723 53 313 2.0 3.0 0.00 0.00 0.00 58 1010.9
20260507152219 55 351 3.0 6.0 0.00 0.00 0.00 54 1010.6
20260507151715 55 244 4.0 10.0 0.00 0.00 0.00 53 1010.9
20260507151212 55 76 5.0 5.0 0.00 0.00 0.00 57 1010.9
20260507150709 55 153 0.0 4.0 0.00 0.00 0.00 51 1011.0
20260507150206 54 243 0.0 4.0 0.00 0.00 0.00 59 1011.1
20260507145701 53 306 0.0 4.0 0.00 0.00 0.00 53 1011.1
20260507145158 52 307 3.0 7.0 0.00 0.00 0.00 55 1011.4
20260507144655 53 257 2.0 5.0 0.00 0.00 0.00 59 1011.4
20260507144153 53 232 3.0 12.0 0.00 0.00 0.00 53 1011.4
20260507143650 54 84 2.0 4.0 0.00 0.00 0.00 58 1011.4
20260507143147 54 200 6.0 8.0 0.00 0.00 0.00 56 1011.6
20260507142642 53 176 1.0 6.0 0.00 0.00 0.00 60 1011.6
20260507142139 53 236 4.0 9.0 0.00 0.00 0.00 63 1011.7
20260507141635 53 209 3.0 8.0 0.00 0.00 0.00 64 1011.7
20260507141132 52 297 5.0 8.0 0.00 0.00 0.00 63 1011.8
20260507140629 52 185 2.0 7.0 0.00 0.00 0.00 64 1011.9
20260507140126 51 258 4.0 5.0 0.00 0.00 0.00 66 1012.0
20260507135623 51 216 4.0 8.0 0.00 0.00 0.00 65 1012.0
20260507135121 51 311 4.0 9.0 0.00 0.00 0.00 67 1012.2
20260507134617 51 210 3.0 6.0 0.00 0.00 0.00 68 1012.1
20260507134113 51 250 1.0 6.0 0.00 0.00 0.00 68 1012.0
20260507133609 50 226 5.0 7.0 0.00 0.00 0.00 69 1012.3
20260507133107 50 206 4.0 8.0 0.00 0.00 0.00 67 1011.9
20260507132603 50 142 0.0 9.0 0.00 0.00 0.00 67 1012.0
20260507132100 49 245 3.0 5.0 0.00 0.00 0.00 70 1012.0
20260507131557 50 222 3.0 4.0 0.00 0.00 0.00 71 1012.1
20260507131054 49 197 2.0 3.0 0.00 0.00 0.00 74 1012.2
20260507130551 48 185 1.0 7.0 0.00 0.00 0.00 75 1012.2
20260507130049 48 203 1.0 3.0 0.00 0.00 0.00 77 1012.2
20260507125547 47 215 2.0 5.0 0.00 0.00 0.00 76 1012.1
20260507125044 47 173 1.0 3.0 0.00 0.00 0.00 77 1012.2
20260507124540 47 208 3.0 4.0 0.00 0.00 0.00 78 1012.2
20260507124038 46 51 3.0 3.0 0.00 0.00 0.00 82 1012.2
20260507123536 46 206 2.0 5.0 0.00 0.00 0.00 81 1012.2
20260507123033 45 211 2.0 4.0 0.00 0.00 0.00 82 1012.1
20260507122528 45 217 3.0 5.0 0.00 0.00 0.00 85 1012.1
20260507122024 44 214 0.0 3.0 0.00 0.00 0.00 85 1012.3
20260507121520 44 248 0.0 4.0 0.00 0.00 0.00 86 1012.1
20260507121016 43 185 1.0 2.0 0.00 0.00 0.00 87 1012.0
20260507120512 42 175 0.0 3.0 0.00 0.00 0.00 88 1012.0
20260507120010 42 210 1.0 3.0 0.00 0.00 0.00 89 1012.1
20260507115505 42 169 0.0 2.0 0.00 0.00 0.00 92 1012.2
20260507115001 41 249 0.0 2.0 0.00 0.00 0.00 94 1012.2
20260507114458 41 187 0.0 3.0 0.00 0.00 0.00 95 1012.1
20260507113955 41 196 1.0 2.0 0.00 0.00 0.00 95 1012.1
20260507113452 40 186 0.0 3.0 0.00 0.00 0.00 97 1012.2
20260507112949 40 192 0.0 2.0 0.00 0.00 0.00 97 1012.1
20260507112447 39 193 0.0 2.0 0.00 0.00 0.00 98 1011.8
20260507111943 39 186 0.0 1.0 0.00 0.00 0.00 97 1011.9
20260507111441 39 147 0.0 2.0 0.00 0.00 0.00 97 1012.0
20260507110937 39 97 0.0 2.0 0.00 0.00 0.00 97 1011.9
20260507110433 39 143 0.0 2.0 0.00 0.00 0.00 97 1011.9
20260507105930 38 180 0.0 1.0 0.00 0.00 0.00 98 1011.8
20260507105427 38 120 1.0 2.0 0.00 0.00 0.00 97 1011.7
20260507104923 39 136 1.0 2.0 0.00 0.00 0.00 97 1011.8
20260507104421 39 150 0.0 2.0 0.00 0.00 0.00 97 1011.7
20260507103916 38 232 0.0 2.0 0.00 0.00 0.00 97 1011.6
20260507103413 38 162 0.0 2.0 0.00 0.00 0.00 97 1011.5
20260507102909 38 184 0.0 2.0 0.00 0.00 0.00 97 1011.6
20260507102406 39 179 0.0 2.0 0.00 0.00 0.00 97 1011.5
20260507101902 38 112 0.0 3.0 0.00 0.00 0.00 97 1011.5
20260507101357 39 111 0.0 2.0 0.00 0.00 0.00 97 1011.7
20260507100854 39 124 0.0 2.0 0.00 0.00 0.00 97 1011.5
20260507100352 39 73 0.0 2.0 0.00 0.00 0.00 96 1011.5
20260507095850 39 148 0.0 1.0 0.00 0.00 0.00 96 1011.5
20260507095346 39 89 0.0 2.0 0.00 0.00 0.00 96 1011.6
20260507094844 39 105 0.0 2.0 0.00 0.00 0.00 96 1011.5
20260507094339 39 110 0.0 2.0 0.00 0.00 0.00 96 1011.6
20260507093837 39 111 1.0 2.0 0.00 0.00 0.00 95 1011.6
20260507093335 39 93 1.0 2.0 0.00 0.00 0.00 94 1011.4
20260507092833 39 57 0.0 2.0 0.00 0.00 0.00 94 1011.4
20260507092329 39 95 0.0 2.0 0.00 0.00 0.00 94 1011.6
20260507091825 39 203 0.0 2.0 0.00 0.00 0.00 94 1011.7
20260507091322 39 167 0.0 2.0 0.00 0.00 0.00 93 1011.7
20260507090818 39 160 0.0 2.0 0.00 0.00 0.00 92 1011.7
20260507090314 39 50 1.0 2.0 0.00 0.00 0.00 92 1011.6
20260507085811 39 89 0.0 1.0 0.00 0.00 0.00 91 1011.6
20260507085308 40 89 0.0 2.0 0.00 0.00 0.00 91 1011.5
20260507084806 40 123 2.0 2.0 0.00 0.00 0.00 90 1011.6
20260507084301 40 97 1.0 2.0 0.00 0.00 0.00 89 1011.8
20260507083759 40 95 2.0 2.0 0.00 0.00 0.00 88 1011.6
20260507083256 41 160 0.0 2.0 0.00 0.00 0.00 87 1011.8
20260507082752 41 113 1.0 2.0 0.00 0.00 0.00 87 1011.5
20260507082248 41 117 1.0 2.0 0.00 0.00 0.00 87 1011.6
20260507081745 41 71 0.0 2.0 0.00 0.00 0.00 87 1011.8
20260507081240 40 122 0.0 2.0 0.00 0.00 0.00 88 1011.7
20260507080737 40 93 1.0 2.0 0.00 0.00 0.00 87 1011.5
20260507080234 40 125 1.0 2.0 0.00 0.00 0.00 87 1011.7
20260507075729 40 94 2.0 3.0 0.00 0.00 0.00 87 1011.8
20260507075226 40 60 0.0 1.0 0.00 0.00 0.00 87 1012.0
20260507074722 41 89 0.0 2.0 0.00 0.00 0.00 87 1011.9
20260507074220 41 66 0.0 2.0 0.00 0.00 0.00 85 1011.6
20260507073716 41 89 1.0 2.0 0.00 0.00 0.00 83 1011.9
20260507073213 42 105 1.0 2.0 0.00 0.00 0.00 83 1011.6
20260507072711 42 97 1.0 2.0 0.00 0.00 0.00 83 1011.9
20260507072208 42 124 0.0 1.0 0.00 0.00 0.00 82 1011.9
20260507071705 42 66 0.0 0.0 0.00 0.00 0.00 83 1011.9
20260507071202 43 53 0.0 1.0 0.00 0.00 0.00 81 1012.0
20260507070659 43 104 0.0 1.0 0.00 0.00 0.00 80 1011.9
20260507070156 43 130 0.0 0.0 0.00 0.00 0.00 80 1012.0
20260507065652 43 130 0.0 0.0 0.00 0.00 0.00 79 1011.9
20260507065149 43 164 0.0 1.0 0.00 0.00 0.00 79 1011.9
20260507064646 43 113 0.0 1.0 0.00 0.00 0.00 80 1012.0
20260507064145 42 147 0.0 1.0 0.00 0.00 0.00 81 1012.0
20260507063642 42 89 0.0 1.0 0.00 0.00 0.00 82 1012.1
20260507063139 42 119 0.0 0.0 0.00 0.00 0.00 82 1011.8
20260507062636 43 130 0.0 0.0 0.00 0.00 0.00 83 1011.8
20260507062133 43 89 0.0 2.0 0.00 0.00 0.00 82 1012.1
20260507061631 43 60 0.0 1.0 0.00 0.00 0.00 80 1012.2
20260507061129 43 89 0.0 1.0 0.00 0.00 0.00 79 1012.0
20260507060627 43 132 0.0 1.0 0.00 0.00 0.00 80 1012.2
20260507060123 44 124 0.0 1.0 0.00 0.00 0.00 80 1012.2
20260507055618 44 135 0.0 0.0 0.00 0.00 0.00 80 1012.2
20260507055114 44 135 0.0 1.0 0.00 0.00 0.00 81 1012.2
20260507054610 44 76 0.0 1.0 0.00 0.00 0.00 81 1012.2
20260507054108 44 104 0.0 1.0 0.00 0.00 0.00 81 1012.3
20260507053606 44 108 0.0 1.0 0.00 0.00 0.00 81 1012.3
20260507053104 45 97 0.0 2.0 0.00 0.00 0.00 81 1012.5
20260507052602 45 98 2.0 2.0 0.00 0.00 0.00 81 1012.6
20260507052058 45 77 1.0 2.0 0.00 0.00 0.00 79 1012.7
20260507051555 45 82 1.0 2.0 0.00 0.00 0.00 79 1012.8
20260507051052 45 70 1.0 2.0 0.00 0.00 0.00 78 1012.7
20260507050549 45 69 2.0 2.0 0.00 0.00 0.00 78 1012.8
20260507050046 45 67 2.0 3.0 0.00 0.00 0.00 77 1012.8
20260507045542 46 49 1.0 3.0 0.00 0.00 0.00 77 1013.0
20260507045039 46 49 2.0 2.0 0.00 0.00 0.00 77 1012.7
20260507044536 46 54 2.0 3.0 0.00 0.00 0.00 77 1012.8
20260507044033 46 36 2.0 4.0 0.00 0.00 0.00 77 1012.7
20260507043528 46 58 2.0 3.0 0.00 0.00 0.00 77 1012.7
20260507043026 46 41 2.0 3.0 0.00 0.00 0.00 77 1012.6
20260507042522 46 42 1.0 3.0 0.00 0.00 0.00 77 1012.7
20260507042018 46 48 1.0 4.0 0.00 0.00 0.00 76 1012.8
20260507041515 46 28 1.0 3.0 0.00 0.00 0.00 76 1012.7
20260507041012 46 41 2.0 3.0 0.00 0.00 0.00 75 1012.8
20260507040508 46 29 2.0 4.0 0.00 0.00 0.00 74 1012.7
20260507040004 47 33 2.0 4.0 0.00 0.52 0.52 74 1012.5
20260507035500 47 33 2.0 2.0 0.00 0.52 0.52 72 1012.6
20260507034957 47 52 2.0 3.0 0.00 0.52 0.52 72 1012.5
20260507034454 47 27 2.0 3.0 0.00 0.52 0.52 71 1012.5
20260507033952 47 23 2.0 3.0 0.00 0.52 0.52 72 1012.5
20260507033449 47 35 2.0 3.0 0.00 0.52 0.52 72 1012.5
20260507032946 47 49 1.0 2.0 0.00 0.52 0.52 72 1012.5
20260507032443 47 35 1.0 3.0 0.00 0.52 0.52 72 1012.3
20260507031939 47 36 1.0 2.0 0.00 0.52 0.52 72 1012.5
20260507031436 47 38 1.0 3.0 0.00 0.52 0.52 72 1012.2
20260507030933 47 40 2.0 3.0 0.00 0.52 0.52 71 1012.4
20260507030430 47 48 1.0 3.0 0.00 0.52 0.52 71 1012.5
20260507025927 47 49 1.0 3.0 0.00 0.52 0.52 71 1012.5
20260507025424 47 49 2.0 3.0 0.00 0.52 0.52 70 1012.5
20260507024922 48 68 2.0 3.0 0.00 0.52 0.52 71 1012.3
20260507024419 48 54 2.0 3.0 0.00 0.52 0.52 70 1012.2
20260507023915 48 58 2.0 3.0 0.00 0.52 0.52 71 1012.3
20260507023412 48 70 2.0 3.0 0.00 0.52 0.52 71 1012.1
20260507022909 48 56 2.0 3.0 0.00 0.52 0.52 71 1012.5
20260507022406 48 55 2.0 3.0 0.00 0.52 0.52 71 1012.1
20260507021902 48 53 2.0 3.0 0.00 0.52 0.52 71 1012.0
20260507021357 48 60 2.0 3.0 0.00 0.52 0.52 70 1012.0
20260507020855 48 51 2.0 3.0 0.00 0.52 0.52 70 1011.9
20260507020351 48 45 2.0 3.0 0.00 0.52 0.52 70 1011.8
20260507015848 48 29 2.0 3.0 0.00 0.52 0.52 69 1011.9
20260507015347 48 45 1.0 3.0 0.00 0.52 0.52 70 1011.7
20260507014844 48 52 2.0 3.0 0.00 0.52 0.52 69 1011.6
20260507014339 48 49 1.0 2.0 0.00 0.52 0.52 70 1011.7
20260507013836 48 74 0.0 3.0 0.00 0.52 0.52 68 1011.6
20260507013333 49 43 3.0 3.0 0.00 0.52 0.52 68 1011.4
20260507012831 49 46 3.0 5.0 0.00 0.52 0.52 67 1011.3
20260507012326 49 47 2.0 4.0 0.00 0.52 0.52 69 1011.4
20260507011824 49 48 2.0 3.0 0.00 0.52 0.52 69 1011.3
20260507011321 49 46 2.0 3.0 0.00 0.52 0.52 69 1011.5
20260507010820 49 62 2.0 2.0 0.00 0.52 0.52 68 1011.3
20260507010316 49 65 1.0 2.0 0.00 0.52 0.52 68 1011.5
20260507005813 49 55 2.0 4.0 0.00 0.52 0.52 67 1011.7
20260507005310 50 48 2.0 3.0 0.00 0.52 0.52 67 1011.7
20260507004801 50 38 2.0 3.0 0.00 0.52 0.52 65 1011.7
20260507004258 50 28 2.0 4.0 0.00 0.52 0.52 65 1011.8
20260507003755 50 32 2.0 5.0 0.00 0.52 0.52 65 1011.9
20260507003250 50 15 2.0 3.0 0.00 0.52 0.52 65 1011.8
20260507002746 50 28 2.0 3.0 0.00 0.52 0.52 66 1011.8
20260507002242 50 52 4.0 5.0 0.00 0.52 0.52 65 1011.6